ニート彗星

502P/NEAT (2025)

English version
Home page
Updated on October 1, 2025

---------------------------------------------------------------------

・ プロフィール

符号 502P/2025 H1
検出日 2024年9月1日、2025年4月23日
検出光度 22.0等、20.3等
検出者 S. Deen (Cerro Tololo), G. J. Leonard (Mt. Lemmon)

・ 写真集

・ 軌道要素

Epoch 2025 May 5.0 TT = JDT 2460800.5                                           
T 2025 Aug. 5.11335 TT                                  Veres                   
q   4.2294846            (2000.0)            P               Q                  
n   0.04356931     Peri.   37.74497     +0.52129925     +0.83038627             
a   7.9986293      Node   264.48506     -0.82317396     +0.42851719             
e   0.4712238      Incl.   11.39972     -0.22501494     +0.35613432             
P  22.6                                                                         
From 133 observations 2002 June 11-2025 Apr. 27, mean residual 1".1.            

・ 光度変化

        m1 = -3.0 + 5 logΔ + 30.0 log r

---------------------------------------------------------------------

軌道要素はM.P.E.C. 2025-H183に掲載されたものです。
光度グラフはComet for Windowsで作成したものです。

---------------------------------------------------------------------

Copyright(C) Seiichi Yoshida (comet@aerith.net). All rights reserved.